Find Starlink 5022

NORAD ID: 53903 Int'l Des: 2022-119 Owner: SPXS Country: US Constellation: starlink operational
LEOCIRCULAR

Current View

Loading 3D Globe...

About Starlink 5022

Starlink 5022 (NORAD 53903) is a starlink constellation satellite (v1.5) launched Sep 24, 2022 by SPXS of US. It operates in LEO, CIRCULAR orbit with a mass of 305.00 kg.

About Starlink 5022

Description loading...

Upcoming Passes

Passes for default location (London). Set your location on the main map for personalized predictions.

Altitude History

Loading altitude history...

Two-Line Element Set

1 53903U 22119T 26165.50847561 -.00000329 00000-0 -25819-5 0 9997
2 53903 53.1612 249.2089 0001373 94.8851 265.2298 15.08827774206307
Epoch: Jun 14, 2026 • Age: 27 hours

Current Status

Altitude 541.9 km
Velocity 7.60 km/s
Sub-Earth Point 35.51°N, 140.79°E
Launch Date Sep 24, 2022
Age 3.7 years
Type internet

Technical Details

Classification Payload
Mass 305.00 kg
Dry Mass 290.00 kg
Total Mass 305.00 kg
Length 0.20 m
Diameter 2.80 m
Span 9.00 m
Shape Box + pan
Manufacturer SPXS
Bus Type Starlink
Phase Status In Orbit
Owner/State SPXS/US

Most Searched